Weather History for Canadian, TX

Change the Weather History Date:

Saturday, March 2, 2013

  Actual Average (KPPA) Record (KPPA)
Temperature  
Mean Temperature 45 °F -  
Max Temperature 64 °F 61 °F 83 °F (1967)
Min Temperature 26 °F 32 °F 4 °F (2014)
Degree Days  
Heating Degree Days 20    
Moisture  
Dew Point 31 °F    
Average Humidity 70    
Maximum Humidity 100    
Minimum Humidity 30    
Precipitation  
Precipitation 0.00 in - - ()
Sea Level Pressure  
Sea Level Pressure 30.25 in    
Wind  
Wind Speed 2 mph (West)    
Max Wind Speed 13 mph    
Max Gust Speed 18 mph    
Visibility 9 miles    
Events      
Averages and records for this station are not official NWS values.
T = Trace of Precipitation, MM = Missing Value Source: NWS Daily Summary

Daily Weather History Graph

Daily Weather History Graph

Search for Another Location

Airport:

Trip Planner

Search our weather history database for the weather conditions in past years. The results will help you decide how hot, cold, wet, or windy it might be!

Date:

Astronomy

Mar. 02, 2013 Rise Set
Actual Time 7:09 AM CST 6:37 PM CST
Civil Twilight 6:44 AM CST 7:03 PM CST
Nautical Twilight 6:14 AM CST 7:33 PM CST
Astronomical Twilight 5:45 AM CST 8:02 PM CST
Moon No Moon Rise 9:50 AM CST (3/2)
Length of Visible Light 12h 19m
Length of Day
11h 27m
Waning Gibbous, 74% of the Moon is Illuminated
Mar 2
Waning Gibbous
Mar 4
Last Quarter
Mar 11
New
Mar 19
First Quarter
Mar 27
Full

Hourly Weather History & Observations

Time (CST) Temp. Windchill Dew Point Humidity Pressure Visibility Wind Dir Wind Speed Gust Speed Precip Events Conditions
12:15 AM 30.2 °F - 28.4 °F 93% 30.35 in 7.0 mi Calm Calm - N/A   Overcast
12:35 AM 30.2 °F - 28.4 °F 93% 30.35 in 7.0 mi Calm Calm - N/A   Overcast
12:55 AM 32.0 °F - 30.2 °F 93% 30.36 in 7.0 mi Calm Calm - N/A   Overcast
1:15 AM 30.2 °F 26.7 °F 28.4 °F 93% 30.36 in 7.0 mi SW 3.5 mph - N/A   Overcast
1:35 AM 32.0 °F - 30.2 °F 93% 30.36 in 7.0 mi Calm Calm - N/A   Overcast
1:55 AM 32.0 °F - 30.2 °F 93% 30.36 in 10.0 mi Calm Calm - N/A   Scattered Clouds
2:15 AM 30.2 °F - 28.4 °F 93% 30.35 in 7.0 mi Calm Calm - N/A   Clear
2:35 AM 30.2 °F - 28.4 °F 93% 30.35 in 7.0 mi Calm Calm - N/A   Clear
2:55 AM 28.4 °F - 26.6 °F 93% 30.35 in 7.0 mi Calm Calm - N/A   Clear
3:15 AM 28.4 °F 23.3 °F 26.6 °F 93% 30.34 in 5.0 mi SW 4.6 mph - N/A   Clear
3:35 AM 30.2 °F 26.7 °F 28.4 °F 93% 30.34 in 7.0 mi SSW 3.5 mph - N/A   Clear
3:55 AM 28.4 °F - 26.6 °F 93% 30.34 in 7.0 mi Calm Calm - N/A   Clear
4:15 AM 26.6 °F - 26.6 °F 100% 30.33 in 7.0 mi Calm Calm - N/A   Clear
4:35 AM 28.4 °F - 26.6 °F 93% 30.33 in 7.0 mi Calm Calm - N/A   Clear
4:55 AM 28.4 °F - 28.4 °F 100% 30.33 in 7.0 mi Calm Calm - N/A   Clear
5:15 AM 28.4 °F - 28.4 °F 100% 30.33 in 5.0 mi Calm Calm - N/A   Clear
5:35 AM 26.6 °F 22.6 °F 24.8 °F 93% 30.33 in 7.0 mi SW 3.5 mph - N/A   Clear
5:55 AM 28.4 °F - 26.6 °F 93% 30.33 in 7.0 mi Calm Calm - N/A   Clear
6:15 AM 26.6 °F 22.6 °F 26.6 °F 100% 30.33 in 7.0 mi WSW 3.5 mph - N/A   Clear
6:35 AM 28.4 °F - 26.6 °F 93% 30.32 in 7.0 mi Calm Calm - N/A   Clear
6:55 AM 26.6 °F - 26.6 °F 100% 30.32 in 7.0 mi Calm Calm - N/A   Clear
7:15 AM 26.6 °F - 24.8 °F 93% 30.33 in 5.0 mi Calm Calm - N/A   Clear
7:35 AM 28.4 °F - 26.6 °F 93% 30.33 in 5.0 mi Calm Calm - N/A   Clear
7:55 AM 26.6 °F - 26.6 °F 100% 30.34 in 5.0 mi Calm Calm - N/A   Clear
8:15 AM 30.2 °F - 28.4 °F 93% 30.33 in 7.0 mi Calm Calm - N/A   Clear
8:35 AM 30.2 °F - 28.4 °F 93% 30.33 in 7.0 mi Calm Calm - N/A   Clear
8:55 AM 32.0 °F - 30.2 °F 93% 30.33 in 7.0 mi Calm Calm - N/A   Clear
9:15 AM 33.8 °F - 32.0 °F 93% 30.33 in 10.0 mi Calm Calm - N/A   Clear
9:35 AM 37.4 °F 32.8 °F 33.8 °F 87% 30.32 in 10.0 mi WSW 5.8 mph - N/A   Clear
9:55 AM 39.2 °F 37.0 °F 33.8 °F 81% 30.32 in 10.0 mi SW 3.5 mph - N/A   Clear
10:15 AM 41.0 °F 39.0 °F 33.8 °F 76% 30.32 in 10.0 mi NNE 3.5 mph - N/A   Clear
10:35 AM 42.8 °F 40.1 °F 33.8 °F 70% 30.31 in 10.0 mi NNW 4.6 mph - N/A   Mostly Cloudy
10:55 AM 44.6 °F - 33.8 °F 66% 30.30 in 10.0 mi Calm Calm - N/A   Overcast
11:15 AM 46.4 °F - 33.8 °F 62% 30.29 in 10.0 mi Calm Calm - N/A   Overcast
11:35 AM 50.0 °F - 33.8 °F 54% 30.29 in 10.0 mi WNW 8.1 mph - N/A   Scattered Clouds
11:55 AM 51.8 °F - 32.0 °F 47% 30.28 in 10.0 mi NW 9.2 mph - N/A   Clear
12:35 PM 55.4 °F - 33.8 °F 44% 30.26 in 10.0 mi WNW 5.8 mph - N/A   Clear
12:55 PM 55.4 °F - 33.8 °F 44% 30.26 in 10.0 mi West 6.9 mph - N/A   Clear
1:15 PM 59.0 °F - 33.8 °F 39% 30.24 in 10.0 mi WNW 8.1 mph - N/A   Clear
1:35 PM 60.8 °F - 32.0 °F 34% 30.22 in 10.0 mi NNW 6.9 mph - N/A   Clear
1:55 PM 60.8 °F - 32.0 °F 34% 30.21 in 10.0 mi WNW 5.8 mph 16.1 mph N/A   Clear
2:15 PM 60.8 °F - 32.0 °F 34% 30.19 in 10.0 mi NNW 10.4 mph 16.1 mph N/A   Clear
2:35 PM 62.6 °F - 32.0 °F 32% 30.19 in 10.0 mi WNW 11.5 mph - N/A   Clear
2:55 PM 62.6 °F - 32.0 °F 32% 30.19 in 10.0 mi NW 10.4 mph - N/A   Clear
3:15 PM 62.6 °F - 32.0 °F 32% 30.18 in 10.0 mi NNW 10.4 mph - N/A   Clear
3:55 PM 64.4 °F - 32.0 °F 30% 30.17 in 10.0 mi NNW 9.2 mph 17.3 mph N/A   Clear
4:15 PM 64.4 °F - 32.0 °F 30% 30.17 in 10.0 mi NNW 12.7 mph 18.4 mph N/A   Clear
4:35 PM 64.4 °F - 32.0 °F 30% 30.18 in 10.0 mi NNW 9.2 mph - N/A   Clear
4:55 PM 64.4 °F - 32.0 °F 30% 30.16 in 10.0 mi North 6.9 mph - N/A   Clear
5:15 PM 62.6 °F - 32.0 °F 32% 30.16 in 10.0 mi NNE 6.9 mph - N/A   Clear
5:35 PM 62.6 °F - 32.0 °F 32% 30.16 in 10.0 mi NNW 6.9 mph - N/A   Clear
5:55 PM 62.6 °F - 33.8 °F 34% 30.16 in 10.0 mi North 3.5 mph - N/A   Clear
6:15 PM 60.8 °F - 33.8 °F 36% 30.16 in 10.0 mi North 3.5 mph - N/A   Clear
6:35 PM 60.8 °F - 32.0 °F 34% 30.16 in 10.0 mi Calm Calm - N/A   Clear
6:55 PM 59.0 °F - 33.8 °F 39% 30.16 in 10.0 mi Calm Calm - N/A   Clear
7:15 PM 53.6 °F - 33.8 °F 47% 30.16 in 10.0 mi SSE 4.6 mph - N/A   Clear
7:35 PM 50.0 °F - 33.8 °F 54% 30.16 in 10.0 mi SSE 4.6 mph - N/A   Clear
7:55 PM 44.6 °F 43.1 °F 35.6 °F 71% 30.16 in 10.0 mi SW 3.5 mph - N/A   Clear
8:15 PM 44.6 °F 43.1 °F 35.6 °F 71% 30.16 in 10.0 mi SW 3.5 mph - N/A   Clear
8:35 PM 42.8 °F 38.0 °F 33.8 °F 70% 30.15 in 10.0 mi SW 8.1 mph - N/A   Clear
8:55 PM 42.8 °F 40.1 °F 35.6 °F 76% 30.15 in 10.0 mi SW 4.6 mph - N/A   Clear
9:15 PM 42.8 °F 41.1 °F 35.6 °F 76% 30.15 in 10.0 mi WSW 3.5 mph - N/A   Clear
9:35 PM 41.0 °F 39.0 °F 35.6 °F 81% 30.15 in 10.0 mi SW 3.5 mph - N/A   Clear
9:55 PM 41.0 °F 38.0 °F 33.8 °F 76% 30.14 in 10.0 mi SW 4.6 mph - N/A   Clear
10:15 PM 41.0 °F 36.4 °F 33.8 °F 76% 30.14 in 10.0 mi WSW 6.9 mph - N/A   Clear
10:35 PM 41.0 °F 39.0 °F 33.8 °F 76% 30.14 in 10.0 mi SW 3.5 mph - N/A   Clear
10:55 PM 42.8 °F 40.1 °F 33.8 °F 70% 30.13 in 10.0 mi West 4.6 mph - N/A   Clear
11:15 PM 41.0 °F - 33.8 °F 76% 30.13 in 10.0 mi Calm Calm - N/A   Clear
11:35 PM 41.0 °F - 33.8 °F 76% 30.12 in 10.0 mi Calm Calm - N/A   Clear